Printer-friendly version

IAU Minor Planet Center

Minor Planet Center

MPEC 2006-W107: 2006 WG129

The following Minor Planet Electronic Circular may be linked-to from your own Web pages, but must not otherwise be redistributed electronically.


Read MPEC 2006-W106 Read MPEC 2006-W108


M.P.E.C. 2006-W107                               Issued 2006 Nov. 28, 13:03 UT

     The Minor Planet Electronic Circulars contain information on unusual
         minor planets and routine data on comets.  They are published
   on behalf of Commission 20 of the International Astronomical Union by the
          Minor Planet Center, Smithsonian Astrophysical Observatory,
                          Cambridge, MA 02138, U.S.A.

             Prepared using the Tamkin Foundation Computer Network

                              MPC@CFA.HARVARD.EDU
          URL http://cfa-www.harvard.edu/iau/mpc.html  ISSN 1523-6714

                                  2006 WG129

Observations:
     K06WC9G* C2006 11 27.47660 10 22 00.04 +14 55 22.1          20.8 V EW107G96
     K06WC9G  C2006 11 27.48319 10 22 01.84 +14 54 59.1          20.6 V EW107G96
     K06WC9G  C2006 11 27.48981 10 22 03.68 +14 54 36.9          21.1 V EW107G96
     K06WC9G  C2006 11 27.49637 10 22 05.48 +14 54 14.5          21.3 V EW107G96
     K06WC9G  C2006 11 27.50972 10 22 09.22 +14 53 28.2          20.9 V EW107G96
     K06WC9G  C2006 11 27.51026 10 22 09.37 +14 53 26.6          21.1 V EW107G96
     K06WC9G  C2006 11 27.51080 10 22 09.48 +14 53 24.7          21.4 V EW107G96
     K06WC9G  C2006 11 27.51133 10 22 09.66 +14 53 23.1          20.8 V EW107G96
     K06WC9G tC2006 11 28.47335 10 26 42.39 +13 57 39.2          21.1 V EW107291
     K06WC9G tC2006 11 28.47717 10 26 43.45 +13 57 25.4          20.9 V EW107291
     K06WC9G tC2006 11 28.48107 10 26 44.51 +13 57 12.9          21.2 V EW107291
     K06WC9G  C2006 11 28.48124 10 26 44.55 +13 57 10.8          20.7 V EW107G96
     K06WC9G  C2006 11 28.48177 10 26 44.70 +13 57 08.9          20.8 V EW107G96
     K06WC9G  C2006 11 28.48232 10 26 44.84 +13 57 07.4          21.1 V EW107G96
     K06WC9G  C2006 11 28.48285 10 26 44.98 +13 57 05.4          20.8 V EW107G96

Observer details:
291 LPL/Spacewatch II.  Observer T. H. Bressi.  1.8-m f/2.7 reflector + CCD.
G96 Mt. Lemmon Survey.  Observer R. E. Hill.  Measurers E. C. Beshore,
    E. J. Christensen, G. J. Garradd, A. R. Gibbs, A. D. Grauer, R. E. Hill,
    R. A. Kowalski, S. M. Larson, R. H. McNaught.  1.5-m reflector + CCD.

Orbital elements:
2006 WG129                                               Earth MOID = 0.0684 AU
Epoch 2006 Nov. 21.0 TT = JDT 2454060.5                 MPC
M 338.70047              (2000.0)            P               Q
n   0.40658681     Peri.  222.58303     -0.75707311     -0.61453458
a   1.8045428      Node   278.14052     +0.64336079     -0.64217429
e   0.4519780      Incl.   12.94644     +0.11369781     -0.45821329
P   2.42           H   20.1           G   0.15
From 15 observations 2006 Nov. 27-28.  E-assumed.

Ephemeris:
2006 WG129               a,e,i = 1.80, 0.45, 13                  q = 0.9889
Date    TT    R. A. (2000) Decl.     Delta      r     Elong.  Phase     V
2006 11 21    09 51.36   +20 41.7    0.506    1.152    95.4    58.7    21.0
2006 12 01    10 38.60   +11 26.8    0.461    1.100    91.6    63.6    20.9
2006 12 11    11 25.36   +00 42.0    0.439    1.057    86.9    68.5    20.8
2006 12 21    12 11.27   -10 17.3    0.440    1.022    82.3    72.5    20.9
2006 12 31    12 56.25   -20 12.7    0.460    0.999    78.5    74.6    21.0
2007 01 10    13 40.37   -28 20.0    0.493    0.989    76.2    74.9    21.2
2007 01 20    14 23.48   -34 31.2    0.533    0.993    75.3    73.4    21.3
2007 01 30    15 05.01   -38 58.1    0.573    1.010    75.7    71.0    21.4
2007 02 09    15 44.20   -41 59.8    0.609    1.039    77.3    67.9    21.5
2007 02 19    16 20.01   -43 55.7    0.639    1.078    79.9    64.5    21.6
2007 03 01    16 51.37   -45 02.9    0.660    1.126    83.5    60.9    21.6
2007 03 11    17 17.45   -45 36.1    0.672    1.181    88.1    57.2    21.7
2007 03 21    17 37.43   -45 47.1    0.675    1.240    93.8    53.3    21.7
2007 03 31    17 50.49   -45 43.4    0.670    1.302   100.7    48.9    21.6
2007 04 10    17 55.99   -45 28.3    0.659    1.366   108.9    44.0    21.6
2007 04 20    17 53.26   -44 59.0    0.647    1.430   118.4    38.2    21.5
2007 04 30    17 42.31   -44 06.1    0.638    1.495   129.3    31.4    21.3
2007 05 10    17 24.51   -42 36.5    0.638    1.560   141.3    23.9    21.2
2007 05 20    17 02.78   -40 21.5    0.653    1.623   153.6    16.1    21.1
2007 05 30    16 41.22   -37 27.0    0.688    1.685   163.9     9.6    21.1
2007 06 09    16 23.30   -34 14.4    0.745    1.745   165.2     8.5    21.3
2007 06 19    16 10.70   -31 09.3    0.824    1.804   157.1    12.7    21.7

Timothy B. Spahr             (C) Copyright 2006 MPC           M.P.E.C. 2006-W107

Read MPEC 2006-W106 Read MPEC 2006-W108


Our Web policy. Index to the CBAT/MPC/ICQ pages.


Valid HTML 4.01!